,,,PA_Meas_PMT16A,,PR_Meas_QMR101_102,,RH_Meas_QMH101,,SR_Meas_QMS101,,TA_Meas_QMH101,,GenWind,,GenWind,
date,time,status,PA,status,PR,status,RH,status,SR,status,TA,status,DirAvg,status,SpdAvg,
2008-10-28, 00:00:04,VALID,1011.22,VALID,0,VALID,94.4831,VALID,0.105969,VALID,23.7896,VALID,42,VALID,0.339063,
2008-10-28, 00:01:04,VALID,1011.21,VALID,0,VALID,94.4755,VALID,0,VALID,23.7896,VALID,42,VALID,0.422656,
2008-10-28, 00:02:04,VALID,1011.17,VALID,0,VALID,94.445,VALID,0.105969,VALID,23.7896,VALID,46,VALID,0.392578,
2008-10-28, 00:03:04,VALID,1011.16,VALID,0,VALID,94.4145,VALID,0.105969,VALID,23.7507,VALID,119,VALID,0.280078,
2008-10-28, 00:04:04,VALID,1011.17,VALID,0,VALID,94.3992,VALID,0.105969,VALID,23.7683,VALID,119,VALID,0.201562,
2008-10-28, 00:05:04,VALID,1011.15,VALID,0,VALID,94.3839,VALID,0.105969,VALID,23.7507,VALID,119,VALID,0.332031,
2008-10-28, 00:06:04,VALID,1011.14,VALID,0,VALID,94.3763,VALID,0.105969,VALID,23.7507,VALID,119,VALID,0.319531,
2008-10-28, 00:07:04,VALID,1011.16,VALID,0,VALID,94.3687,VALID,0,VALID,23.7507,VALID,119,VALID,0.523828,
2008-10-28, 00:08:04,VALID,1011.17,VALID,0,VALID,94.3611,VALID,0,VALID,23.772,VALID,119,VALID,0.441797,
2008-10-28, 00:09:04,VALID,1011.16,VALID,0,VALID,94.3611,VALID,0,VALID,23.772,VALID,119,VALID,0.376563,
2008-10-28, 00:10:04,VALID,1011.14,VALID,0,VALID,94.3687,VALID,0,VALID,23.7932,VALID,119,VALID,0.262891,
2008-10-28, 00:11:04,VALID,1011.14,VALID,0,VALID,94.3687,VALID,0,VALID,23.772,VALID,119,VALID,0.0566406,
2008-10-28, 00:12:04,VALID,1011.11,VALID,0,VALID,94.3763,VALID,0,VALID,23.772,VALID,119,VALID,0.0886719,
2008-10-28, 00:13:04,VALID,1011.11,VALID,0,VALID,94.3534,VALID,0,VALID,23.772,VALID,119,VALID,0.0652344,
2008-10-28, 00:14:04,VALID,1011.1,VALID,0,VALID,94.3382,VALID,0,VALID,23.7914,VALID,119,VALID,0,
2008-10-28, 00:15:04,VALID,1011.12,VALID,0,VALID,94.3458,VALID,0,VALID,23.772,VALID,119,VALID,0,
2008-10-28, 00:16:04,VALID,1011.11,VALID,0,VALID,94.3229,VALID,0,VALID,23.7525,VALID,119,VALID,0,
2008-10-28, 00:17:04,VALID,1011.08,VALID,0,VALID,94.3306,VALID,0,VALID,23.7525,VALID,119,VALID,0,
2008-10-28, 00:18:04,VALID,1011.09,VALID,0,VALID,94.3229,VALID,0,VALID,23.7525,VALID,119,VALID,0,
2008-10-28, 00:19:04,VALID,1011.04,VALID,0,VALID,94.3229,VALID,0,VALID,23.7525,VALID,119,VALID,0,
2008-10-28, 00:20:04,VALID,1011.01,VALID,0,VALID,94.3153,VALID,0,VALID,23.7914,VALID,119,VALID,0,
2008-10-28, 00:21:04,VALID,1011.02,VALID,0,VALID,94.3153,VALID,0,VALID,23.8109,VALID,119,VALID,0,
2008-10-28, 00:22:04,VALID,1011.04,VALID,0,VALID,94.3382,VALID,0,VALID,23.7914,VALID,119,VALID,0,
2008-10-28, 00:23:04,VALID,1011,VALID,0,VALID,94.2848,VALID,0.105969,VALID,23.7896,VALID,119,VALID,0,
2008-10-28, 00:24:04,VALID,1011.01,VALID,0,VALID,94.3077,VALID,0.105969,VALID,23.7896,VALID,119,VALID,0,
2008-10-28, 00:25:04,VALID,1011.01,VALID,0,VALID,94.3001,VALID,0.105969,VALID,23.8268,VALID,119,VALID,0,
2008-10-28, 00:26:04,VALID,1010.98,VALID,0,VALID,94.3001,VALID,0.105969,VALID,23.8091,VALID,119,VALID,0,
2008-10-28, 00:27:04,VALID,1011,VALID,0,VALID,94.3077,VALID,0.105969,VALID,23.8286,VALID,119,VALID,0,
2008-10-28, 00:28:04,VALID,1011,VALID,0,VALID,94.3077,VALID,0.105969,VALID,23.8286,VALID,119,VALID,0,
2008-10-28, 00:29:04,VALID,1011,VALID,0,VALID,94.2848,VALID,0.105969,VALID,23.8286,VALID,119,VALID,0,
2008-10-28, 00:30:04,VALID,1010.99,VALID,0,VALID,94.2696,VALID,0.105969,VALID,23.8286,VALID,119,VALID,0,
2008-10-28, 00:31:04,VALID,1010.98,VALID,0,VALID,94.2238,VALID,0.105969,VALID,23.8481,VALID,119,VALID,0,
2008-10-28, 00:32:04,VALID,1010.95,VALID,0,VALID,94.2086,VALID,0,VALID,23.8481,VALID,119,VALID,0,
2008-10-28, 00:33:04,VALID,1010.94,VALID,0,VALID,94.2009,VALID,0.105969,VALID,23.8676,VALID,119,VALID,0,
2008-10-28, 00:34:04,VALID,1010.93,VALID,0,VALID,94.1933,VALID,0.105969,VALID,23.8481,VALID,119,VALID,0,
2008-10-28, 00:35:04,VALID,1010.94,VALID,0,VALID,94.1781,VALID,0.105969,VALID,23.8676,VALID,119,VALID,0,
2008-10-28, 00:36:04,VALID,1010.93,VALID,0,VALID,94.1781,VALID,0.105969,VALID,23.8871,VALID,119,VALID,0,
2008-10-28, 00:37:04,VALID,1010.92,VALID,0,VALID,94.2086,VALID,0.105969,VALID,23.8871,VALID,119,VALID,0,
2008-10-28, 00:38:04,VALID,1010.92,VALID,0,VALID,94.2009,VALID,0,VALID,23.9084,VALID,119,VALID,0,
2008-10-28, 00:39:04,VALID,1010.92,VALID,0,VALID,94.1933,VALID,0,VALID,23.8889,VALID,119,VALID,0,
2008-10-28, 00:40:04,VALID,1010.93,VALID,0,VALID,94.1781,VALID,0,VALID,23.8871,VALID,119,VALID,0,
2008-10-28, 00:41:04,VALID,1010.89,VALID,0,VALID,94.1933,VALID,0,VALID,23.8889,VALID,119,VALID,0,
2008-10-28, 00:42:04,VALID,1010.9,VALID,0,VALID,94.2086,VALID,0,VALID,23.8889,VALID,119,VALID,0,
2008-10-28, 00:43:04,VALID,1010.88,VALID,0,VALID,94.2162,VALID,0,VALID,23.8889,VALID,119,VALID,0,
2008-10-28, 00:44:04,VALID,1010.87,VALID,0,VALID,94.1857,VALID,0,VALID,23.8694,VALID,119,VALID,0,
2008-10-28, 00:45:04,VALID,1010.88,VALID,0,VALID,94.1933,VALID,0,VALID,23.8694,VALID,119,VALID,0,
2008-10-28, 00:46:04,VALID,1010.88,VALID,0,VALID,94.1933,VALID,0,VALID,23.8499,VALID,119,VALID,0,
2008-10-28, 00:47:04,VALID,1010.85,VALID,0,VALID,94.1933,VALID,0,VALID,23.8499,VALID,119,VALID,0,
2008-10-28, 00:48:04,VALID,1010.84,VALID,0,VALID,94.1857,VALID,0,VALID,23.8109,VALID,119,VALID,0,
2008-10-28, 00:49:04,VALID,1010.86,VALID,0,VALID,94.1476,VALID,0,VALID,23.7914,VALID,119,VALID,0,
2008-10-28, 00:50:04,VALID,1010.84,VALID,0,VALID,94.1704,VALID,0,VALID,23.8109,VALID,119,VALID,0,
2008-10-28, 00:51:04,VALID,1010.82,VALID,0,VALID,94.1323,VALID,0,VALID,23.8109,VALID,119,VALID,0,
2008-10-28, 00:52:04,VALID,1010.8,VALID,0,VALID,94.1094,VALID,0,VALID,23.7914,VALID,119,VALID,0,
2008-10-28, 00:53:04,VALID,1010.77,VALID,0,VALID,94.1018,VALID,0,VALID,23.8109,VALID,119,VALID,0,
2008-10-28, 00:54:04,VALID,1010.76,VALID,0,VALID,94.0637,VALID,0,VALID,23.7701,VALID,119,VALID,0,
2008-10-28, 00:55:04,VALID,1010.74,VALID,0,VALID,94.0637,VALID,0,VALID,23.8109,VALID,119,VALID,0,
2008-10-28, 00:56:04,VALID,1010.74,VALID,0,VALID,94.0332,VALID,0,VALID,23.7914,VALID,119,VALID,0,
2008-10-28, 00:57:04,VALID,1010.75,VALID,0,VALID,94.0408,VALID,0,VALID,23.7914,VALID,119,VALID,0,
2008-10-28, 00:58:04,VALID,1010.73,VALID,0,VALID,94.0484,VALID,0,VALID,23.7914,VALID,119,VALID,0,
2008-10-28, 00:59:04,VALID,1010.75,VALID,0,VALID,94.0789,VALID,0,VALID,23.8109,VALID,119,VALID,0,
2008-10-28, 01:00:04,VALID,1010.73,VALID,0,VALID,94.0713,VALID,0,VALID,23.7914,VALID,119,VALID,0,
2008-10-28, 01:01:04,VALID,1010.75,VALID,0,VALID,94.0484,VALID,0,VALID,23.7914,VALID,119,VALID,0,
2008-10-28, 01:02:04,VALID,1010.76,VALID,0,VALID,94.0484,VALID,0,VALID,23.7701,VALID,119,VALID,0,
2008-10-28, 01:03:04,VALID,1010.75,VALID,0,VALID,94.0484,VALID,0,VALID,23.7507,VALID,119,VALID,0,
2008-10-28, 01:04:04,VALID,1010.75,VALID,0,VALID,94.0179,VALID,0,VALID,23.7914,VALID,119,VALID,0,
2008-10-28, 01:05:04,VALID,1010.75,VALID,0,VALID,94.0408,VALID,0,VALID,23.7914,VALID,119,VALID,0,
2008-10-28, 01:06:04,VALID,1010.74,VALID,0,VALID,94.0637,VALID,0,VALID,23.7914,VALID,119,VALID,0,
2008-10-28, 01:07:04,VALID,1010.72,VALID,0,VALID,94.0865,VALID,0,VALID,23.7914,VALID,119,VALID,0,
2008-10-28, 01:08:04,VALID,1010.73,VALID,0,VALID,94.1171,VALID,0,VALID,23.772,VALID,119,VALID,0,
2008-10-28, 01:09:04,VALID,1010.71,VALID,0,VALID,94.0865,VALID,0,VALID,23.7312,VALID,119,VALID,0.502344,
2008-10-28, 01:10:04,VALID,1010.67,VALID,0,VALID,94.0942,VALID,0,VALID,23.7312,VALID,119,VALID,0.376563,
2008-10-28, 01:11:04,VALID,1010.67,VALID,0,VALID,94.1018,VALID,0,VALID,23.733,VALID,119,VALID,0.261328,
2008-10-28, 01:12:04,VALID,1010.67,VALID,0,VALID,94.0713,VALID,0,VALID,23.7117,VALID,119,VALID,0,
2008-10-28, 01:13:04,VALID,1010.68,VALID,0,VALID,94.0865,VALID,0,VALID,23.7135,VALID,119,VALID,0,
2008-10-28, 01:14:04,VALID,1010.64,VALID,0,VALID,94.0713,VALID,0,VALID,23.694,VALID,119,VALID,0,
2008-10-28, 01:15:04,VALID,1010.63,VALID,0,VALID,94.0942,VALID,0,VALID,23.694,VALID,119,VALID,0,
2008-10-28, 01:16:04,VALID,1010.64,VALID,0,VALID,94.1171,VALID,0,VALID,23.6727,VALID,119,VALID,0.157813,
2008-10-28, 01:17:04,VALID,1010.67,VALID,0,VALID,94.1476,VALID,0,VALID,23.694,VALID,119,VALID,0.232031,
2008-10-28, 01:18:04,VALID,1010.64,VALID,0,VALID,94.1552,VALID,0,VALID,23.7135,VALID,119,VALID,0.0660156,
2008-10-28, 01:19:04,VALID,1010.65,VALID,0,VALID,94.1628,VALID,0,VALID,23.7135,VALID,119,VALID,0.201562,
2008-10-28, 01:20:04,VALID,1010.64,VALID,0,VALID,94.1476,VALID,0,VALID,23.6745,VALID,119,VALID,0.284766,
2008-10-28, 01:21:04,VALID,1010.64,VALID,0,VALID,94.1171,VALID,0,VALID,23.655,VALID,119,VALID,0.188281,
2008-10-28, 01:22:04,VALID,1010.66,VALID,0,VALID,94.0865,VALID,0,VALID,23.655,VALID,54,VALID,0.432813,
2008-10-28, 01:23:04,VALID,1010.63,VALID,0,VALID,94.0637,VALID,0,VALID,23.6373,VALID,41,VALID,0.486719,
2008-10-28, 01:24:04,VALID,1010.64,VALID,0,VALID,94.0332,VALID,0,VALID,23.5771,VALID,40,VALID,0.597656,
2008-10-28, 01:25:04,VALID,1010.65,VALID,0,VALID,94.0408,VALID,0,VALID,23.5771,VALID,36,VALID,0.594531,
2008-10-28, 01:26:04,VALID,1010.65,VALID,0,VALID,94.0637,VALID,0,VALID,23.5576,VALID,36,VALID,0.642969,
2008-10-28, 01:27:04,VALID,1010.63,VALID,0,VALID,94.1018,VALID,0,VALID,23.5381,VALID,30,VALID,0.622266,
2008-10-28, 01:28:04,VALID,1010.64,VALID,0,VALID,94.1476,VALID,0,VALID,23.5186,VALID,23,VALID,0.406641,
2008-10-28, 01:29:04,VALID,1010.65,VALID,0,VALID,94.1857,VALID,0,VALID,23.5381,VALID,40,VALID,0.482812,
2008-10-28, 01:30:04,VALID,1010.64,VALID,0,VALID,94.2162,VALID,0,VALID,23.4797,VALID,40,VALID,0.2,
2008-10-28, 01:31:04,VALID,1010.6,VALID,0,VALID,94.2314,VALID,0,VALID,23.4992,VALID,40,VALID,0,
2008-10-28, 01:32:04,VALID,1010.61,VALID,0,VALID,94.2772,VALID,0,VALID,23.4992,VALID,40,VALID,0,
2008-10-28, 01:33:04,VALID,1010.61,VALID,0,VALID,94.3001,VALID,0,VALID,23.4797,VALID,40,VALID,0.147266,
2008-10-28, 01:34:04,VALID,1010.57,VALID,0,VALID,94.3687,VALID,0,VALID,23.4797,VALID,40,VALID,0.0984375,
2008-10-28, 01:35:04,VALID,1010.6,VALID,0,VALID,94.4145,VALID,0,VALID,23.4992,VALID,40,VALID,0.046875,
2008-10-28, 01:36:04,VALID,1010.57,VALID,0,VALID,94.4526,VALID,0,VALID,23.4779,VALID,40,VALID,0.189844,
2008-10-28, 01:37:04,VALID,1010.58,VALID,0,VALID,94.4526,VALID,0,VALID,23.4797,VALID,40,VALID,0,
2008-10-28, 01:38:04,VALID,1010.57,VALID,0,VALID,94.4755,VALID,0,VALID,23.4797,VALID,40,VALID,0,
2008-10-28, 01:39:04,VALID,1010.55,VALID,0,VALID,94.4983,VALID,0,VALID,23.4992,VALID,40,VALID,0,
2008-10-28, 01:40:04,VALID,1010.55,VALID,0,VALID,94.506,VALID,0,VALID,23.4584,VALID,40,VALID,0,
2008-10-28, 01:41:04,VALID,1010.54,VALID,0,VALID,94.5212,VALID,0,VALID,23.4389,VALID,40,VALID,0,
2008-10-28, 01:42:04,VALID,1010.51,VALID,0,VALID,94.5593,VALID,0,VALID,23.4602,VALID,40,VALID,0,
2008-10-28, 01:43:04,VALID,1010.5,VALID,0,VALID,94.5746,VALID,0,VALID,23.4602,VALID,40,VALID,0,
2008-10-28, 01:44:04,VALID,1010.49,VALID,0,VALID,94.6127,VALID,0,VALID,23.4602,VALID,40,VALID,0,
2008-10-28, 01:45:04,VALID,1010.47,VALID,0,VALID,94.6127,VALID,0.105969,VALID,23.4797,VALID,40,VALID,0,
2008-10-28, 01:46:04,VALID,1010.45,VALID,0,VALID,94.6432,VALID,0,VALID,23.4602,VALID,40,VALID,0,
2008-10-28, 01:47:04,VALID,1010.43,VALID,0,VALID,94.6585,VALID,0,VALID,23.4194,VALID,40,VALID,0,
2008-10-28, 01:48:04,VALID,1010.44,VALID,0,VALID,94.6585,VALID,0,VALID,23.4407,VALID,40,VALID,0,
2008-10-28, 01:49:04,VALID,1010.44,VALID,0,VALID,94.6814,VALID,0,VALID,23.4407,VALID,40,VALID,0,
2008-10-28, 01:50:04,VALID,1010.42,VALID,0,VALID,94.6661,VALID,0,VALID,23.4602,VALID,40,VALID,0,
2008-10-28, 01:51:04,VALID,1010.43,VALID,0,VALID,94.6966,VALID,0,VALID,23.4407,VALID,40,VALID,0,
2008-10-28, 01:52:04,VALID,1010.39,VALID,0,VALID,94.7271,VALID,0,VALID,23.4194,VALID,40,VALID,0,
2008-10-28, 01:53:04,VALID,1010.4,VALID,0,VALID,94.7271,VALID,0,VALID,23.4407,VALID,40,VALID,0,
2008-10-28, 01:54:04,VALID,1010.38,VALID,0,VALID,94.7271,VALID,0,VALID,23.4212,VALID,40,VALID,0,
2008-10-28, 01:55:04,VALID,1010.38,VALID,0,VALID,94.7652,VALID,0,VALID,23.4,VALID,40,VALID,0,
2008-10-28, 01:56:04,VALID,1010.37,VALID,0,VALID,94.75,VALID,0,VALID,23.4017,VALID,40,VALID,0,
2008-10-28, 01:57:04,VALID,1010.37,VALID,0,VALID,94.7576,VALID,0,VALID,23.4017,VALID,40,VALID,0.00117188,
2008-10-28, 01:58:04,VALID,1010.37,VALID,0,VALID,94.7424,VALID,0,VALID,23.361,VALID,40,VALID,0,
2008-10-28, 01:59:04,VALID,1010.39,VALID,0,VALID,94.7576,VALID,0,VALID,23.3823,VALID,40,VALID,0,
2008-10-28, 02:00:04,VALID,1010.38,VALID,0,VALID,94.7652,VALID,0,VALID,23.3415,VALID,40,VALID,0,
2008-10-28, 02:01:04,VALID,1010.4,VALID,0,VALID,94.7729,VALID,0,VALID,23.3415,VALID,40,VALID,0,
2008-10-28, 02:02:04,VALID,1010.41,VALID,0,VALID,94.8034,VALID,0,VALID,23.3628,VALID,40,VALID,0,
2008-10-28, 02:03:04,VALID,1010.4,VALID,0,VALID,94.7957,VALID,0,VALID,23.3433,VALID,40,VALID,0,
2008-10-28, 02:04:04,VALID,1010.42,VALID,0,VALID,94.8034,VALID,0,VALID,23.3628,VALID,40,VALID,0,
2008-10-28, 02:05:04,VALID,1010.41,VALID,0,VALID,94.811,VALID,0,VALID,23.3628,VALID,40,VALID,0,
2008-10-28, 02:06:04,VALID,1010.4,VALID,0,VALID,94.8186,VALID,0,VALID,23.3238,VALID,40,VALID,0,
2008-10-28, 02:07:04,VALID,1010.4,VALID,0,VALID,94.8262,VALID,0,VALID,23.3238,VALID,40,VALID,0,
2008-10-28, 02:08:04,VALID,1010.38,VALID,0,VALID,94.8339,VALID,0,VALID,23.3433,VALID,40,VALID,0,
2008-10-28, 02:09:04,VALID,1010.38,VALID,0,VALID,94.8491,VALID,0,VALID,23.3433,VALID,40,VALID,0,
2008-10-28, 02:10:04,VALID,1010.38,VALID,0,VALID,94.8491,VALID,0,VALID,23.3433,VALID,40,VALID,0,
2008-10-28, 02:11:04,VALID,1010.36,VALID,0,VALID,94.8796,VALID,0,VALID,23.3433,VALID,40,VALID,0,
2008-10-28, 02:12:04,VALID,1010.36,VALID,0,VALID,94.872,VALID,0,VALID,23.322,VALID,40,VALID,0,
2008-10-28, 02:13:04,VALID,1010.32,VALID,0,VALID,94.872,VALID,0,VALID,23.3433,VALID,40,VALID,0,
2008-10-28, 02:14:04,VALID,1010.33,VALID,0,VALID,94.8873,VALID,0,VALID,23.3433,VALID,40,VALID,0,
2008-10-28, 02:15:04,VALID,1010.3,VALID,0,VALID,94.8796,VALID,0,VALID,23.3238,VALID,40,VALID,0,
2008-10-28, 02:16:04,VALID,1010.32,VALID,0,VALID,94.8873,VALID,0,VALID,23.3433,VALID,40,VALID,0,
2008-10-28, 02:17:04,VALID,1010.3,VALID,0,VALID,94.8873,VALID,0,VALID,23.3433,VALID,40,VALID,0,
2008-10-28, 02:18:04,VALID,1010.3,VALID,0,VALID,94.8796,VALID,0,VALID,23.3628,VALID,40,VALID,0,
2008-10-28, 02:19:04,VALID,1010.3,VALID,0,VALID,94.9025,VALID,0,VALID,23.3433,VALID,40,VALID,0,
2008-10-28, 02:20:04,VALID,1010.29,VALID,0,VALID,94.8949,VALID,0,VALID,23.3433,VALID,40,VALID,0,
2008-10-28, 02:21:04,VALID,1010.27,VALID,0,VALID,94.9178,VALID,0,VALID,23.3026,VALID,40,VALID,0,
2008-10-28, 02:22:04,VALID,1010.26,VALID,0,VALID,94.9101,VALID,0,VALID,23.3238,VALID,40,VALID,0,
2008-10-28, 02:23:04,VALID,1010.27,VALID,0,VALID,94.8949,VALID,0,VALID,23.3043,VALID,40,VALID,0,
2008-10-28, 02:24:04,VALID,1010.24,VALID,0,VALID,94.9254,VALID,0.105969,VALID,23.3238,VALID,40,VALID,0,
2008-10-28, 02:25:04,VALID,1010.23,VALID,0,VALID,94.9025,VALID,0,VALID,23.3238,VALID,40,VALID,0,
2008-10-28, 02:26:04,VALID,1010.19,VALID,0,VALID,94.8949,VALID,0,VALID,23.3238,VALID,40,VALID,0,
2008-10-28, 02:27:04,VALID,1010.22,VALID,0,VALID,94.9101,VALID,0,VALID,23.3043,VALID,40,VALID,0,
2008-10-28, 02:28:04,VALID,1010.19,VALID,0,VALID,94.9178,VALID,0,VALID,23.3043,VALID,40,VALID,0.292188,
2008-10-28, 02:29:04,VALID,1010.18,VALID,0,VALID,94.9101,VALID,0,VALID,23.2848,VALID,40,VALID,0.164453,
2008-10-28, 02:30:04,VALID,1010.17,VALID,0,VALID,94.8873,VALID,0,VALID,23.2848,VALID,40,VALID,0.228906,
2008-10-28, 02:31:04,VALID,1010.14,VALID,0,VALID,94.9101,VALID,0,VALID,23.3043,VALID,40,VALID,0.224219,
2008-10-28, 02:32:04,VALID,1010.16,VALID,0,VALID,94.9025,VALID,0,VALID,23.3043,VALID,40,VALID,0.13125,
2008-10-28, 02:33:04,VALID,1010.15,VALID,0,VALID,94.8873,VALID,0,VALID,23.3043,VALID,40,VALID,0.0746094,
2008-10-28, 02:34:04,VALID,1010.15,VALID,0,VALID,94.8949,VALID,0,VALID,23.3238,VALID,40,VALID,0.134766,
2008-10-28, 02:35:04,VALID,1010.15,VALID,0,VALID,94.8873,VALID,0,VALID,23.2848,VALID,40,VALID,0.138672,
2008-10-28, 02:36:04,VALID,1010.13,VALID,0,VALID,94.8644,VALID,0,VALID,23.2848,VALID,40,VALID,0,
2008-10-28, 02:37:04,VALID,1010.12,VALID,0,VALID,94.8568,VALID,0,VALID,23.2848,VALID,40,VALID,0.0480469,
2008-10-28, 02:38:04,VALID,1010.13,VALID,0,VALID,94.8415,VALID,0,VALID,23.2654,VALID,40,VALID,0.254297,
2008-10-28, 02:39:04,VALID,1010.12,VALID,0,VALID,94.8415,VALID,0,VALID,23.2654,VALID,40,VALID,0.196094,
2008-10-28, 02:40:04,VALID,1010.1,VALID,0,VALID,94.7957,VALID,0,VALID,23.2654,VALID,40,VALID,0,
2008-10-28, 02:41:04,VALID,1010.09,VALID,0,VALID,94.7805,VALID,0,VALID,23.2264,VALID,40,VALID,0,
2008-10-28, 02:42:04,VALID,1010.09,VALID,0,VALID,94.7881,VALID,0,VALID,23.2051,VALID,40,VALID,0,
2008-10-28, 02:43:04,VALID,1010.08,VALID,0,VALID,94.7729,VALID,0,VALID,23.2459,VALID,44,VALID,0.148047,
2008-10-28, 02:44:04,VALID,1010.08,VALID,0,VALID,94.7957,VALID,0,VALID,23.2459,VALID,88,VALID,0.326953,
2008-10-28, 02:45:04,VALID,1010.04,VALID,0,VALID,94.7805,VALID,0,VALID,23.2459,VALID,126,VALID,0.486328,
2008-10-28, 02:46:04,VALID,1010.02,VALID,0,VALID,94.7881,VALID,0,VALID,23.2654,VALID,135,VALID,0.501172,
2008-10-28, 02:47:04,VALID,1010.03,VALID,0,VALID,94.7881,VALID,0,VALID,23.2654,VALID,135,VALID,0.250781,
2008-10-28, 02:48:04,VALID,1010.03,VALID,0,VALID,94.8034,VALID,0,VALID,23.2654,VALID,135,VALID,0.248437,
2008-10-28, 02:49:04,VALID,1010.03,VALID,0,VALID,94.7805,VALID,0,VALID,23.2654,VALID,135,VALID,0.0351563,
2008-10-28, 02:50:04,VALID,1010.04,VALID,0,VALID,94.7957,VALID,0,VALID,23.2654,VALID,135,VALID,0,
2008-10-28, 02:51:04,VALID,1010.01,VALID,0,VALID,94.7805,VALID,0,VALID,23.2459,VALID,135,VALID,0,
2008-10-28, 02:52:04,VALID,1010,VALID,0,VALID,94.7652,VALID,0,VALID,23.2459,VALID,135,VALID,0,
2008-10-28, 02:53:04,VALID,1009.97,VALID,0,VALID,94.7576,VALID,0,VALID,23.2459,VALID,135,VALID,0,
2008-10-28, 02:54:04,VALID,1009.95,VALID,0,VALID,94.7652,VALID,0,VALID,23.2671,VALID,135,VALID,0,
2008-10-28, 02:55:04,VALID,1009.94,VALID,0,VALID,94.7729,VALID,0,VALID,23.2459,VALID,135,VALID,0,
2008-10-28, 02:56:04,VALID,1009.91,VALID,0,VALID,94.7652,VALID,0.105969,VALID,23.2459,VALID,135,VALID,0,
2008-10-28, 02:57:04,VALID,1009.92,VALID,0,VALID,94.7195,VALID,0,VALID,23.2459,VALID,135,VALID,0,
2008-10-28, 02:58:04,VALID,1009.9,VALID,0,VALID,94.7347,VALID,0,VALID,23.2459,VALID,135,VALID,0.102734,
2008-10-28, 02:59:04,VALID,1009.92,VALID,0,VALID,94.6966,VALID,0,VALID,23.2264,VALID,135,VALID,0,
2008-10-28, 03:00:04,VALID,1009.91,VALID,0,VALID,94.6814,VALID,0,VALID,23.2069,VALID,127,VALID,0.189063,
2008-10-28, 03:01:04,VALID,1009.9,VALID,0,VALID,94.6737,VALID,0,VALID,23.2069,VALID,127,VALID,0,
2008-10-28, 03:02:04,VALID,1009.92,VALID,0,VALID,94.6737,VALID,0,VALID,23.1679,VALID,127,VALID,0,
2008-10-28, 03:03:04,VALID,1009.92,VALID,0,VALID,94.6814,VALID,0,VALID,23.2264,VALID,127,VALID,0,
2008-10-28, 03:04:04,VALID,1009.91,VALID,0,VALID,94.6814,VALID,0,VALID,23.2069,VALID,127,VALID,0,
2008-10-28, 03:05:04,VALID,1009.91,VALID,0,VALID,94.6737,VALID,0,VALID,23.1662,VALID,127,VALID,0,
2008-10-28, 03:06:04,VALID,1009.89,VALID,0,VALID,94.6737,VALID,0,VALID,23.1874,VALID,127,VALID,0,
2008-10-28, 03:07:04,VALID,1009.88,VALID,0,VALID,94.7042,VALID,0,VALID,23.1874,VALID,127,VALID,0,
2008-10-28, 03:08:04,VALID,1009.87,VALID,0,VALID,94.6814,VALID,0,VALID,23.1874,VALID,127,VALID,0,
2008-10-28, 03:09:04,VALID,1009.87,VALID,0,VALID,94.7042,VALID,0,VALID,23.1874,VALID,127,VALID,0,
2008-10-28, 03:10:04,VALID,1009.86,VALID,0,VALID,94.6737,VALID,0,VALID,23.1679,VALID,127,VALID,0,
2008-10-28, 03:11:04,VALID,1009.86,VALID,0,VALID,94.689,VALID,0,VALID,23.1679,VALID,127,VALID,0,
2008-10-28, 03:12:04,VALID,1009.86,VALID,0,VALID,94.6966,VALID,0,VALID,23.1679,VALID,127,VALID,0,
2008-10-28, 03:13:04,VALID,1009.86,VALID,0,VALID,94.6737,VALID,0,VALID,23.1272,VALID,127,VALID,0,
2008-10-28, 03:14:04,VALID,1009.85,VALID,0,VALID,94.7119,VALID,0,VALID,23.1679,VALID,127,VALID,0,
2008-10-28, 03:15:04,VALID,1009.84,VALID,0,VALID,94.6814,VALID,0,VALID,23.1485,VALID,127,VALID,0,
2008-10-28, 03:16:04,VALID,1009.87,VALID,0,VALID,94.689,VALID,0.105969,VALID,23.1679,VALID,127,VALID,0,
2008-10-28, 03:17:04,VALID,1009.85,VALID,0,VALID,94.7042,VALID,0,VALID,23.1485,VALID,127,VALID,0,
2008-10-28, 03:18:04,VALID,1009.82,VALID,0,VALID,94.6966,VALID,0,VALID,23.129,VALID,127,VALID,0,
2008-10-28, 03:19:04,VALID,1009.83,VALID,0,VALID,94.6966,VALID,0.105969,VALID,23.129,VALID,127,VALID,0,
2008-10-28, 03:20:04,VALID,1009.81,VALID,0,VALID,94.6737,VALID,0,VALID,23.129,VALID,127,VALID,0,
2008-10-28, 03:21:04,VALID,1009.83,VALID,0,VALID,94.6737,VALID,0,VALID,23.1095,VALID,127,VALID,0,
2008-10-28, 03:22:04,VALID,1009.87,VALID,0,VALID,94.7042,VALID,0,VALID,23.09,VALID,127,VALID,0,
2008-10-28, 03:23:04,VALID,1009.88,VALID,0,VALID,94.6737,VALID,0,VALID,23.1095,VALID,127,VALID,0,
2008-10-28, 03:24:04,VALID,1009.86,VALID,0,VALID,94.7119,VALID,0,VALID,23.1095,VALID,127,VALID,0,
2008-10-28, 03:25:04,VALID,1009.89,VALID,0,VALID,94.7271,VALID,0,VALID,23.1095,VALID,127,VALID,0,
2008-10-28, 03:26:04,VALID,1009.88,VALID,0,VALID,94.7195,VALID,0,VALID,23.1095,VALID,127,VALID,0,
2008-10-28, 03:27:04,VALID,1009.86,VALID,0,VALID,94.75,VALID,0,VALID,23.129,VALID,127,VALID,0,
2008-10-28, 03:28:04,VALID,1009.86,VALID,0,VALID,94.7576,VALID,0,VALID,23.1095,VALID,127,VALID,0,
2008-10-28, 03:29:04,VALID,1009.87,VALID,0,VALID,94.7652,VALID,0,VALID,23.1077,VALID,127,VALID,0.000390625,
2008-10-28, 03:30:04,VALID,1009.87,VALID,0,VALID,94.7576,VALID,0,VALID,23.1095,VALID,127,VALID,0.259375,
2008-10-28, 03:31:04,VALID,1009.88,VALID,0,VALID,94.7805,VALID,0,VALID,23.1095,VALID,127,VALID,0.248437,
2008-10-28, 03:32:04,VALID,1009.85,VALID,0,VALID,94.7805,VALID,0,VALID,23.09,VALID,48,VALID,0.356641,
2008-10-28, 03:33:04,VALID,1009.86,VALID,0,VALID,94.8034,VALID,0,VALID,23.0493,VALID,48,VALID,0.313672,
2008-10-28, 03:34:04,VALID,1009.85,VALID,0,VALID,94.8339,VALID,0,VALID,23.0705,VALID,48,VALID,0.342187,
2008-10-28, 03:35:04,VALID,1009.82,VALID,0,VALID,94.811,VALID,0,VALID,23.0705,VALID,48,VALID,0.363281,
2008-10-28, 03:36:04,VALID,1009.81,VALID,0,VALID,94.8186,VALID,0,VALID,23.0705,VALID,48,VALID,0.302734,
2008-10-28, 03:37:04,VALID,1009.8,VALID,0,VALID,94.8339,VALID,0,VALID,23.0511,VALID,48,VALID,0.187891,
2008-10-28, 03:38:04,VALID,1009.78,VALID,0,VALID,94.811,VALID,0,VALID,23.0316,VALID,48,VALID,0.124609,
2008-10-28, 03:39:04,VALID,1009.79,VALID,0,VALID,94.8034,VALID,0,VALID,23.0316,VALID,48,VALID,0.0636719,
2008-10-28, 03:40:04,VALID,1009.75,VALID,0,VALID,94.811,VALID,0,VALID,23.0316,VALID,48,VALID,0.160156,
2008-10-28, 03:41:04,VALID,1009.75,VALID,0,VALID,94.811,VALID,0,VALID,23.0103,VALID,48,VALID,0.116406,
2008-10-28, 03:42:04,VALID,1009.78,VALID,0,VALID,94.8034,VALID,0,VALID,23.0316,VALID,48,VALID,0.00351562,
2008-10-28, 03:43:04,VALID,1009.78,VALID,0,VALID,94.811,VALID,0,VALID,22.9926,VALID,48,VALID,0,
2008-10-28, 03:44:04,VALID,1009.76,VALID,0,VALID,94.8339,VALID,0,VALID,22.9536,VALID,48,VALID,0,
2008-10-28, 03:45:04,VALID,1009.79,VALID,0,VALID,94.811,VALID,0,VALID,22.9926,VALID,48,VALID,0,
2008-10-28, 03:46:04,VALID,1009.78,VALID,0,VALID,94.811,VALID,0,VALID,22.9536,VALID,48,VALID,0,
2008-10-28, 03:47:04,VALID,1009.8,VALID,0,VALID,94.8186,VALID,0,VALID,22.9536,VALID,48,VALID,0,
2008-10-28, 03:48:04,VALID,1009.8,VALID,0,VALID,94.8186,VALID,0,VALID,22.9536,VALID,48,VALID,0,
2008-10-28, 03:49:04,VALID,1009.79,VALID,0,VALID,94.8262,VALID,0,VALID,22.9536,VALID,48,VALID,0,
2008-10-28, 03:50:04,VALID,1009.77,VALID,0,VALID,94.8568,VALID,0,VALID,22.9731,VALID,48,VALID,0,
2008-10-28, 03:51:04,VALID,1009.77,VALID,0,VALID,94.8644,VALID,0,VALID,22.9324,VALID,48,VALID,0,
2008-10-28, 03:52:04,VALID,1009.76,VALID,0,VALID,94.872,VALID,0,VALID,22.9536,VALID,48,VALID,0,
2008-10-28, 03:53:04,VALID,1009.75,VALID,0,VALID,94.8644,VALID,0,VALID,22.9536,VALID,48,VALID,0,
2008-10-28, 03:54:04,VALID,1009.78,VALID,0,VALID,94.8873,VALID,0,VALID,22.9536,VALID,48,VALID,0,